Location: The Saddle
(36.8333°N, 80.3417°W)
Time: 09:34:12
(UTC-04:00)

Vanguard 2 Rocket - Pass Details

Date: 01 February 2023
Orbit: 555 x 3316 km, 32.9° (Epoch: 25 March)

Event Time Altitude Azimuth Distance (km) Brightness Sun altitude
Rises 09:20:23 0° 215° (SW) 3,979 10.3 19.3°
Reaches altitude 10° 09:24:45 10° 194° (SSW) 2,544 9.6 19.9°
Maximum altitude 09:27:57 15° 160° (SSE) 1,910 9.9 20.4°
Drops below altitude 10° 09:30:41 10° 123° (ESE) 2,054 10.7 20.8°
Sets 09:33:29 0° 99° (E) 2,789 10.3 21.2°
